Flag for U.S.A. Weather past 2 weeks in Provincetown, Massachusetts, U.S.A.

Now
61 °F

Clear.


Feels Like: 61 °F
Forecast: 64 / 72 °F
Wind: N/A

Location: Provincetown Weather Reporting Station

Current Time: Aug 22, 2014 at 12:10:17 AM

Latest Report: Aug 21, 2014 at 11:55 PM


Visibility: 10 mi

Pressure: 30.07 "Hg

Humidity: 88%

Dew point: 57 °F

Location of ProvincetownLocation

Historic Weather in Provincetown — Graph

°F

Provincetown temperature yesterday

Maximum temperature yesterday: 75 °F (at 11:55 AM)
Minimum temperature yesterday: 55 °F (at 12:15 AM)
Average temperature yesterday: 67 °F

Past Weeks' High & Low Weather Summary

 TemperatureHumidityPressure
High81 °F (Aug 11, 1:15 PM)94% (Aug 6, 10:15 PM)30.17 "Hg (Aug 6, 10:15 PM)
Low52 °F (Aug 20, 4:55 AM)47% (Aug 8, 3:55 PM)29.63 "Hg (Aug 13, 10:35 PM)
Average68 °F77%29.96 "Hg
* Reported Aug 6 10:15 PM — Aug 21 10:55 PM, Provincetown, Weather by CustomWeather, © 2014

Note: Actual official high and low records may vary slightly from our data, if they occured in-between our weather recording intervals... More about our weather records

Advertising

Provincetown weather history for previous 24 hours

 ConditionsComfort  
Time TempWeatherWind HumidityBarometerVisibility
10:55 PM
Aug 21
63 °FClear.N/A94%30.08 "Hg10 mi
10:35 PM63 °FClear.N/A94%30.08 "Hg10 mi
10:15 PM61 °FClear.N/A88%30.08 "Hg10 mi
9:55 PM61 °FClear.N/A83%30.08 "Hg10 mi
9:35 PM63 °FClear.N/A88%30.09 "Hg10 mi
9:15 PM63 °FClear.N/A88%30.09 "Hg10 mi
8:55 PM63 °FClear.N/A94%30.09 "Hg10 mi
8:35 PM64 °FClear.N/A88%30.08 "Hg10 mi
8:15 PM64 °FSunny.N/A88%30.09 "Hg10 mi
7:55 PM66 °FSunny.N/A88%30.09 "Hg10 mi
7:35 PM66 °FSunny.N/A88%30.08 "Hg10 mi
7:15 PM66 °FSunny.N/A83%30.08 "Hg10 mi
6:55 PM70 °FSunny.N/A78%30.08 "Hg10 mi
6:35 PM72 °FSunny.N/A73%30.08 "Hg10 mi
6:15 PM70 °FSunny.N/A78%30.07 "Hg10 mi
5:55 PM70 °FSunny.N/A78%30.07 "Hg10 mi
5:35 PM70 °FSunny.N/A78%30.07 "Hg10 mi
5:15 PM72 °FSunny.N/A78%30.07 "Hg10 mi
4:55 PM72 °FSunny.N/A78%30.07 "Hg10 mi
4:35 PM72 °FSunny.N/A78%30.07 "Hg10 mi
4:15 PM72 °FSunny.N/A78%30.07 "Hg10 mi
3:55 PM72 °FSunny.N/A78%30.07 "Hg10 mi
3:35 PM73 °FSunny.N/A74%30.08 "Hg10 mi
3:15 PM73 °FSunny.N/A78%30.07 "Hg10 mi
2:55 PM73 °FSunny.N/A78%30.08 "Hg10 mi
2:35 PM72 °FSunny.N/A83%30.08 "Hg10 mi
1:55 PM73 °FSunny.N/A74%30.09 "Hg10 mi
1:35 PM73 °FPassing clouds.N/A74%30.09 "Hg10 mi
1:15 PM73 °FPassing clouds.N/A74%30.09 "Hg10 mi
12:55 PM73 °FPassing clouds.N/A74%30.09 "Hg10 mi
12:35 PM73 °FSunny.N/A74%30.09 "Hg10 mi
12:15 PM73 °FSunny.N/A78%30.09 "Hg10 mi
11:55 AM75 °FSunny.N/A74%30.09 "Hg10 mi
11:35 AM72 °FSunny.N/A78%30.09 "Hg10 mi
11:15 AM73 °FSunny.N/A74%30.09 "Hg10 mi
10:55 AM70 °FSunny.N/A83%30.09 "Hg10 mi
10:35 AM70 °FSunny.N/A83%30.10 "Hg10 mi
10:15 AM70 °FScattered clouds.N/A83%30.10 "Hg10 mi
9:55 AM70 °FScattered clouds.N/A83%30.10 "Hg10 mi
9:35 AM70 °FPartly sunny.N/A83%30.10 "Hg10 mi
9:15 AM70 °FPartly sunny.N/A83%30.10 "Hg10 mi
8:55 AM70 °FPassing clouds.N/A83%30.10 "Hg10 mi
8:35 AM68 °FBroken clouds.N/A88%30.09 "Hg10 mi
7:55 AM68 °FPartly sunny.N/A88%30.09 "Hg10 mi
7:35 AM66 °FPartly sunny.N/A94%30.09 "Hg10 mi
6:55 AM64 °FPartly sunny.N/A94%30.07 "Hg10 mi
6:35 AM64 °FPassing clouds.N/A94%30.06 "Hg10 mi
6:15 AM64 °FClear.N/A94%30.06 "Hg10 mi
5:55 AM64 °FClear.N/A94%30.05 "Hg10 mi
5:35 AM64 °FClear.N/A88%30.05 "Hg10 mi
5:15 AM64 °FPassing clouds.N/A88%30.05 "Hg10 mi
4:55 AM64 °FPassing clouds.N/A88%30.05 "Hg10 mi
4:35 AM64 °FPassing clouds.N/A88%30.05 "Hg10 mi
4:15 AM63 °FPassing clouds.N/A94%30.06 "Hg10 mi
3:55 AM63 °FPassing clouds.N/A88%30.06 "Hg10 mi
3:35 AM61 °FPartly cloudy.N/A88%30.06 "Hg10 mi
3:15 AM59 °FPassing clouds.N/A88%30.06 "Hg10 mi
2:55 AM61 °FPassing clouds.N/A88%30.06 "Hg10 mi
2:35 AM61 °FPassing clouds.N/A88%30.05 "Hg10 mi
2:15 AM61 °FMostly cloudy.N/A88%30.05 "Hg10 mi
1:55 AM61 °FOvercast.N/A88%30.05 "Hg10 mi
1:35 AM57 °FPassing clouds.N/A88%30.05 "Hg10 mi
1:15 AM57 °FPassing clouds.N/A88%30.05 "Hg9 mi
12:55 AM55 °FPassing clouds.N/A88%30.05 "Hg10 mi
12:35 AM55 °FPassing clouds.N/A88%30.05 "Hg10 mi
12:15 AM55 °FPassing clouds.N/A88%30.06 "Hg10 mi
Weather by CustomWeather, © 2014

See weather overviewHow to use our weather pages